This demonstration page uses our WeatherBlox Daily Observations layout. Learn more.

Left ArrowRight Arrow

41.86663, -103.66717

Hourly Observations for September 4, 2018

Temp ( °F °C ) Dew Point ( °F °C ) Humidity (%) Winds ( mph kmh ) Pressure ( in mb ) Visibility ( mi km ) Precip ( " mm )
12:53 am 00:53 Clear 60 15.6 60 15.6 100 100 ESE 10 17 29.86 1011 10 16 N/A
1:53 am 01:53 Clear 59 15 59 15 100 100 ESE 8 13 29.85 1011 10 16 N/A
2:53 am 02:53 Clear 58 14.4 58 14.4 100 100 E 8 13 29.87 1011 10 16 N/A
3:53 am 03:53 Clear 58 14.4 58 14.4 100 100 ESE 6 9 29.88 1012 9 14 N/A
4:53 am 04:53 Clear 58 14.4 58 14.4 100 100 ESE 7 11 29.87 1012 7 11 N/A
5:27 am 05:27 Partly Cloudy with Mist and Fog 59 15 59 15 100 100 ESE 7 11 29.88 1012 5 8 N/A
5:37 am 05:37 Mostly Cloudy with Mist and Fog 59 15 59 15 100 100 ESE 7 11 29.88 1012 5 8 N/A
5:48 am 05:48 Cloudy with Mist and Fog 61 16 61 16 100 100 ESE 8 13 29.85 1011 3 4 N/A
5:53 am 05:53 Cloudy with Mist and Fog 60 15.6 60 15.6 100 100 ESE 8 13 29.88 1012 1 2 N/A
5:56 am 05:56 Mostly Cloudy with Fog 61 16 61 16 100 100 ESE 8 13 29.85 1011 1 1 N/A
6:12 am 06:12 Mostly Cloudy with Fog 61 16 61 16 100 100 SE 7 11 29.85 1011 0 0 N/A
6:53 am 06:53 Mostly Cloudy with Fog 60 15.6 60 15.6 100 100 ESE 3 6 29.90 1013 5 8 N/A
7:48 am 07:48 Mostly Cloudy with Fog 61 16 61 16 100 100 N N/A 29.91 1013 1 1 N/A
7:53 am 07:53 Cloudy with Mist and Fog 60 15.6 60 15.6 100 100 N N/A 29.91 1013 1 1 N/A
8:01 am 08:01 Cloudy with Mist and Fog 60 15.6 60 15.6 100 100 WNW 5 7 29.91 1013 1 2 N/A
8:29 am 08:29 Cloudy with Mist and Fog 60 15.6 60 15.6 100 100 WNW 6 9 29.94 1014 3 4 N/A
8:40 am 08:40 Cloudy with Mist and Fog 61 16 61 16 100 100 WNW 7 11 29.94 1014 5 8 N/A
8:53 am 08:53 Cloudy with Mist and Fog 60 15.6 60 15.6 100 100 WNW 7 11 29.96 1015 6 10 N/A
9:38 am 09:38 Cloudy 63 17 63 17 100 100 W 9 15 29.94 1014 9 14 N/A
9:53 am 09:53 Cloudy 64 17.8 63 17.2 96 96 W 9 15 29.98 1015 10 16 N/A
10:06 am 10:06 Cloudy 64 18 63 17 94 94 W 8 13 29.94 1014 10 16 N/A
10:35 am 10:35 Partly Cloudy 66 18.9 62 16.7 87 87 WNW 12 19 29.91 1013 10 16 N/A
10:53 am 10:53 Partly Cloudy 65 18.3 61 16.1 87 87 WNW 10 17 30.01 1016 10 16 N/A
11:53 am 11:53 Mostly Sunny 70 21.1 61 16.1 73 73 N 13 20 29.99 1016 10 16 N/A
12:53 pm 12:53 Mostly Cloudy 75 23.9 61 16.1 62 62 N 14 22 29.98 1015 10 16 N/A
1:12 pm 13:12 Mostly Cloudy 75 24 61 16 61 61 N 10 17 29.85 1011 10 16 N/A
1:53 pm 13:53 Partly Cloudy 77 25 59 15 54 54 N 10 17 29.98 1015 10 16 N/A
2:53 pm 14:53 Sunny 79 26.1 58 14.4 49 49 N 8 13 29.96 1015 10 16 N/A
3:53 pm 15:53 Sunny 78 25.6 55 12.8 45 45 NNE 13 20 29.96 1014 10 16 N/A
4:53 pm 16:53 Sunny 76 24.4 55 12.8 48 48 NE 14 22 29.97 1015 10 16 N/A
5:53 pm 17:53 Sunny 72 22.2 57 13.9 59 59 NNE 16 26 29.99 1016 10 16 N/A
6:53 pm 18:53 Sunny 66 18.9 57 13.9 73 73 NNE 13 20 30.03 1017 10 16 N/A
7:53 pm 19:53 Clear 61 16.1 56 13.3 84 84 NE 9 15 30.08 1019 10 16 N/A
8:53 pm 20:53 Clear 59 15 53 11.7 81 81 NE 8 13 30.12 1020 10 16 N/A
9:53 pm 21:53 Clear 57 13.9 52 11.1 83 83 ENE 7 11 30.13 1020 10 16 N/A
10:53 pm 22:53 Clear 57 13.9 52 11.1 83 83 E 6 9 30.15 1021 10 16 N/A
11:53 pm 23:53 Cloudy 58 14.4 52 11.1 81 81 N N/A 30.15 1021 10 16 N/A

Powered by AerisWeather